Time,TemperatureF,DewpointF,PressureIn,WindDirection,WindDirectionDegrees,WindSpeedMPH,WindSpeedGustMPH,Humidity,HourlyPrecipIn,Conditions,Clouds,dailyrainin,SoftwareType,DateUTC
2013-06-04 00:02:00,37.0,30.0,-100.00,WSW,256,7.0,10.0,76,0.00,,,-99.99,,2013-06-04 06:02:00,
2013-06-04 00:11:00,36.0,30.0,-100.00,WSW,258,6.0,9.0,78,0.00,,,-99.99,,2013-06-04 06:11:00,
2013-06-04 00:21:00,36.0,30.0,-100.00,West,260,6.0,9.0,77,0.00,,,-99.99,,2013-06-04 06:21:00,
2013-06-04 00:32:00,36.0,30.0,-100.00,WSW,258,6.0,9.0,77,0.00,,,-99.99,,2013-06-04 06:32:00,
2013-06-04 00:42:00,36.0,30.0,-100.00,West,261,6.0,9.0,78,0.00,,,-99.99,,2013-06-04 06:42:00,
2013-06-04 00:52:00,37.0,29.0,-100.00,WSW,257,6.0,9.0,75,0.00,,,-99.99,,2013-06-04 06:52:00,
2013-06-04 01:01:00,37.0,29.0,-100.00,WSW,247,9.0,14.0,73,0.00,,,-99.99,,2013-06-04 07:01:00,
2013-06-04 01:11:00,37.0,29.0,-100.00,WSW,254,8.0,13.0,73,0.00,,,-99.99,,2013-06-04 07:11:00,
2013-06-04 01:21:00,37.0,29.0,-100.00,WSW,254,7.0,12.0,73,0.00,,,-99.99,,2013-06-04 07:21:00,
2013-06-04 01:32:00,36.0,29.0,-100.00,West,265,6.0,9.0,77,0.00,,,-99.99,,2013-06-04 07:32:00,
2013-06-04 01:52:00,35.0,29.0,-100.00,West,267,2.0,6.0,79,0.00,,,-99.99,,2013-06-04 07:52:00,
2013-06-04 02:02:00,35.0,29.0,-100.00,West,265,2.0,6.0,79,0.00,,,-99.99,,2013-06-04 08:02:00,
2013-06-04 02:11:00,36.0,29.0,-100.00,WSW,251,6.0,9.0,75,0.00,,,-99.99,,2013-06-04 08:11:00,
2013-06-04 02:21:00,36.0,29.0,-100.00,WSW,250,6.0,9.0,75,0.00,,,-99.99,,2013-06-04 08:21:00,
2013-06-04 02:32:00,36.0,29.0,-100.00,WSW,247,4.0,7.0,75,0.00,,,-99.99,,2013-06-04 08:32:00,
2013-06-04 02:41:00,33.0,28.0,-100.00,South,171,0.0,3.0,81,0.00,,,-99.99,,2013-06-04 08:41:00,
2013-06-04 02:52:00,30.0,30.0,-100.00,ENE,68,4.0,4.0,100,0.00,,,-99.99,,2013-06-04 08:52:00,
2013-06-04 03:01:00,30.0,30.0,-100.00,East,97,4.0,6.0,100,0.00,,,-99.99,,2013-06-04 09:01:00,
2013-06-04 03:12:00,30.0,30.0,-100.00,East,83,4.0,6.0,100,0.00,,,-99.99,,2013-06-04 09:12:00,
2013-06-04 03:21:00,30.0,30.0,-100.00,ESE,103,2.0,4.0,100,0.00,,,-99.99,,2013-06-04 09:21:00,
2013-06-04 03:32:00,31.0,31.0,-100.00,ENE,65,1.0,4.0,100,0.00,,,-99.99,,2013-06-04 09:32:00,
2013-06-04 03:42:00,33.0,33.0,-100.00,WNW,299,0.0,2.0,100,0.00,,,-99.99,,2013-06-04 09:42:00,
2013-06-04 04:12:00,30.0,30.0,-100.00,ENE,61,2.0,4.0,100,0.00,,,-99.99,,2013-06-04 10:12:00,
2013-06-04 04:22:00,30.0,30.0,-100.00,ESE,114,4.0,6.0,100,0.00,,,-99.99,,2013-06-04 10:22:00,
2013-06-04 04:32:00,31.0,31.0,-100.00,SW,226,1.0,3.0,100,0.00,,,-99.99,,2013-06-04 10:32:00,
2013-06-04 04:42:00,-999.0,-99.9,-100.00,WSW,254,2.0,4.0,-999,-99.99,,,-99.99,,2013-06-04 10:42:00,
2013-06-04 04:52:00,33.0,33.0,-100.00,WNW,301,2.0,4.0,98,0.00,,,-99.99,,2013-06-04 10:52:00,
2013-06-04 05:02:00,32.0,32.0,-100.00,WNW,292,3.0,6.0,99,0.00,,,-99.99,,2013-06-04 11:02:00,
2013-06-04 05:11:00,32.0,31.0,-100.00,East,85,1.0,5.0,100,0.00,,,-99.99,,2013-06-04 11:11:00,
2013-06-04 05:21:00,31.0,31.0,-100.00,WNW,284,2.0,5.0,100,0.00,,,-99.99,,2013-06-04 11:21:00,
2013-06-04 05:31:00,33.0,33.0,-100.00,NW,305,1.0,4.0,100,0.00,,,-99.99,,2013-06-04 11:31:00,
2013-06-04 05:52:00,30.0,30.0,-100.00,East,82,4.0,5.0,100,0.00,,,-99.99,,2013-06-04 11:52:00,
2013-06-04 06:01:00,30.0,30.0,-100.00,NE,55,4.0,6.0,100,0.00,,,-99.99,,2013-06-04 12:01:00,
2013-06-04 06:11:00,30.0,30.0,-100.00,ENE,71,2.0,4.0,100,0.00,,,-99.99,,2013-06-04 12:11:00,
2013-06-04 06:32:00,31.0,31.0,-100.00,NNW,332,1.0,3.0,100,0.00,,,-99.99,,2013-06-04 12:32:00,
2013-06-04 06:42:00,31.0,31.0,-100.00,NNE,30,2.0,7.0,100,0.00,,,-99.99,,2013-06-04 12:42:00,
2013-06-04 06:52:00,31.0,30.0,-100.00,ENE,66,6.0,9.0,100,0.00,,,-99.99,,2013-06-04 12:52:00,
2013-06-04 07:02:00,30.0,30.0,-100.00,ENE,76,5.0,7.0,100,0.00,,,-99.99,,2013-06-04 13:02:00,
2013-06-04 07:11:00,31.0,31.0,-100.00,ENE,78,6.0,8.0,100,0.00,,,-99.99,,2013-06-04 13:11:00,
2013-06-04 07:21:00,31.0,31.0,-100.00,ENE,69,6.0,8.0,100,0.00,,,-99.99,,2013-06-04 13:21:00,
2013-06-04 07:32:00,31.0,31.0,-100.00,ENE,68,7.0,11.0,100,0.00,,,-99.99,,2013-06-04 13:32:00,
2013-06-04 07:52:00,32.0,32.0,-100.00,East,79,6.0,8.0,100,0.00,,,-99.99,,2013-06-04 13:52:00,
2013-06-04 08:01:00,32.0,32.0,-100.00,East,99,5.0,7.0,100,0.00,,,-99.99,,2013-06-04 14:01:00,
2013-06-04 08:11:00,32.0,32.0,-100.00,East,95,4.0,7.0,100,0.00,,,-99.99,,2013-06-04 14:11:00,
2013-06-04 08:21:00,32.0,32.0,-100.00,East,99,2.0,7.0,100,0.00,,,-99.99,,2013-06-04 14:21:00,
2013-06-04 08:32:00,33.0,33.0,-100.00,NW,316,0.0,4.0,100,0.00,,,-99.99,,2013-06-04 14:32:00,
2013-06-04 08:42:00,33.0,33.0,-100.00,ENE,58,1.0,7.0,100,0.00,,,-99.99,,2013-06-04 14:42:00,
2013-06-04 08:52:00,32.0,32.0,-100.00,ENE,62,9.0,13.0,100,0.00,,,-99.99,,2013-06-04 14:52:00,
2013-06-04 09:02:00,33.0,33.0,-100.00,East,97,9.0,12.0,100,0.00,,,-99.99,,2013-06-04 15:02:00,
2013-06-04 09:11:00,32.0,32.0,-100.00,East,90,9.0,13.0,100,0.00,,,-99.99,,2013-06-04 15:11:00,
2013-06-04 09:21:00,32.0,32.0,-100.00,East,86,10.0,12.0,100,0.00,,,-99.99,,2013-06-04 15:21:00,
2013-06-04 09:33:00,33.0,33.0,-100.00,East,85,9.0,12.0,100,-99.99,,,-99.99,,2013-06-04 15:33:00,
2013-06-04 09:42:00,32.0,32.0,-100.00,East,82,10.0,14.0,100,0.00,,,-99.99,,2013-06-04 15:42:00,
2013-06-04 10:22:00,31.0,31.0,-100.00,East,86,14.0,17.0,100,0.00,,,-99.99,,2013-06-04 16:22:00,
2013-06-04 10:52:00,31.0,31.0,-100.00,ENE,64,17.0,21.0,100,0.00,,,-99.99,,2013-06-04 16:52:00,
2013-06-04 11:03:00,-999.0,-99.9,-100.00,ENE,66,15.0,21.0,-999,-99.99,,,-99.99,,2013-06-04 17:03:00,
2013-06-04 11:23:00,-999.0,-99.9,-100.00,ENE,65,12.0,17.0,-999,-99.99,,,-99.99,,2013-06-04 17:23:00,
2013-06-04 11:32:00,31.0,31.0,-100.00,ENE,66,12.0,15.0,100,0.01,,,-99.99,,2013-06-04 17:32:00,
2013-06-04 11:42:00,30.0,30.0,-100.00,East,86,11.0,15.0,100,0.00,,,-99.99,,2013-06-04 17:42:00,
2013-06-04 12:11:00,31.0,31.0,-100.00,East,86,9.0,12.0,100,-99.99,,,-99.99,,2013-06-04 18:11:00,
2013-06-04 12:32:00,31.0,31.0,-100.00,East,85,9.0,14.0,100,0.00,,,-99.99,,2013-06-04 18:32:00,
2013-06-04 12:42:00,31.0,31.0,-100.00,East,85,9.0,13.0,100,0.00,,,-99.99,,2013-06-04 18:42:00,
2013-06-04 12:52:00,31.0,31.0,-100.00,East,85,10.0,12.0,100,0.00,,,-99.99,,2013-06-04 18:52:00,
2013-06-04 13:02:00,31.0,31.0,-100.00,East,85,11.0,14.0,100,0.00,,,-99.99,,2013-06-04 19:02:00,
2013-06-04 13:11:00,30.0,30.0,-100.00,East,85,11.0,14.0,100,0.00,,,-99.99,,2013-06-04 19:11:00,
2013-06-04 13:22:00,30.0,30.0,-100.00,East,85,9.0,12.0,100,0.00,,,-99.99,,2013-06-04 19:22:00,
2013-06-04 13:31:00,31.0,31.0,-100.00,East,85,6.0,11.0,100,0.00,,,-99.99,,2013-06-04 19:31:00,
2013-06-04 13:42:00,-999.0,-99.9,-100.00,East,85,8.0,12.0,-999,-99.99,,,-99.99,,2013-06-04 19:42:00,
2013-06-04 14:02:00,32.0,32.0,-100.00,East,83,2.0,12.0,100,0.00,,,-99.99,,2013-06-04 20:02:00,
2013-06-04 14:11:00,31.0,31.0,-100.00,East,83,0.0,0.0,100,0.00,,,-99.99,,2013-06-04 20:11:00,
2013-06-04 14:21:00,31.0,31.0,-100.00,East,83,0.0,0.0,100,0.00,,,-99.99,,2013-06-04 20:21:00,
2013-06-04 14:42:00,-999.0,-99.9,-100.00,East,83,0.0,0.0,-999,-99.99,,,-99.99,,2013-06-04 20:42:00,
2013-06-04 14:52:00,31.0,31.0,-100.00,East,83,0.0,0.0,100,0.00,,,-99.99,,2013-06-04 20:52:00,
2013-06-04 15:01:00,31.0,31.0,-100.00,East,83,0.0,0.0,100,0.00,,,-99.99,,2013-06-04 21:01:00,
2013-06-04 15:22:00,32.0,32.0,-100.00,East,83,0.0,0.0,100,0.00,,,-99.99,,2013-06-04 21:22:00,
2013-06-04 15:42:00,32.0,32.0,-100.00,ENE,71,0.0,0.0,100,0.00,,,-99.99,,2013-06-04 21:42:00,
2013-06-04 15:52:00,32.0,32.0,-100.00,ENE,69,0.0,0.0,100,0.10,,,-99.99,,2013-06-04 21:52:00,
2013-06-04 16:02:00,32.0,32.0,-100.00,ENE,66,0.0,0.0,100,0.00,,,-99.99,,2013-06-04 22:02:00,
2013-06-04 16:12:00,32.0,32.0,-100.00,ENE,62,0.0,0.0,100,0.00,,,-99.99,,2013-06-04 22:12:00,
2013-06-04 16:22:00,32.0,32.0,-100.00,ENE,68,0.0,0.0,100,0.00,,,-99.99,,2013-06-04 22:22:00,
2013-06-04 16:32:00,32.0,32.0,-100.00,ENE,69,0.0,0.0,100,-99.99,,,-99.99,,2013-06-04 22:32:00,
2013-06-04 16:52:00,32.0,32.0,-100.00,East,93,0.0,0.0,100,0.00,,,-99.99,,2013-06-04 22:52:00,
2013-06-04 17:02:00,32.0,32.0,-100.00,ENE,75,0.0,0.0,100,-99.99,,,-99.99,,2013-06-04 23:02:00,
2013-06-04 17:21:00,32.0,32.0,-100.00,ENE,78,0.0,0.0,100,0.00,,,-99.99,,2013-06-04 23:21:00,
2013-06-04 17:32:00,32.0,32.0,-100.00,East,80,0.0,0.0,100,0.00,,,-99.99,,2013-06-04 23:32:00,
2013-06-04 17:42:00,32.0,32.0,-100.00,East,83,0.0,0.0,100,0.00,,,-99.99,,2013-06-04 23:42:00,
2013-06-04 17:52:00,32.0,32.0,-100.00,East,82,0.0,0.0,100,0.00,,,-99.99,,2013-06-04 23:52:00,
2013-06-04 18:01:00,32.0,32.0,-100.00,East,82,0.0,0.0,100,0.00,,,-99.99,,2013-06-05 00:01:00,
2013-06-04 18:32:00,32.0,32.0,-100.00,ENE,73,0.0,0.0,100,0.00,,,-99.99,,2013-06-05 00:32:00,
2013-06-04 18:42:00,32.0,32.0,-100.00,ENE,69,0.0,0.0,100,0.00,,,-99.99,,2013-06-05 00:42:00,
2013-06-04 18:52:00,32.0,32.0,-100.00,ENE,71,0.0,0.0,100,0.00,,,-99.99,,2013-06-05 00:52:00,
2013-06-04 19:01:00,32.0,32.0,-100.00,ENE,71,0.0,0.0,100,0.00,,,-99.99,,2013-06-05 01:01:00,
2013-06-04 19:31:00,32.0,32.0,-100.00,ENE,64,0.0,0.0,100,0.00,,,-99.99,,2013-06-05 01:31:00,
2013-06-04 19:42:00,32.0,32.0,-100.00,ENE,64,0.0,0.0,100,0.00,,,-99.99,,2013-06-05 01:42:00,
2013-06-04 19:52:00,32.0,32.0,-100.00,ENE,66,0.0,0.0,100,0.00,,,-99.99,,2013-06-05 01:52:00,
2013-06-04 20:01:00,32.0,32.0,-100.00,ENE,76,0.0,0.0,100,0.00,,,-99.99,,2013-06-05 02:01:00,
2013-06-04 20:12:00,-999.0,-99.9,-100.00,East,90,0.0,1.0,-999,-99.99,,,-99.99,,2013-06-05 02:12:00,
2013-06-04 20:21:00,33.0,33.0,-100.00,ESE,103,0.0,0.0,100,0.00,,,-99.99,,2013-06-05 02:21:00,
2013-06-04 20:31:00,33.0,33.0,-100.00,ESE,106,0.0,0.0,100,0.00,,,-99.99,,2013-06-05 02:31:00,
2013-06-04 20:52:00,32.0,32.0,-100.00,East,85,0.0,0.0,100,0.00,,,-99.99,,2013-06-05 02:52:00,
2013-06-04 21:02:00,32.0,32.0,-100.00,ENE,76,0.0,0.0,100,0.00,,,-99.99,,2013-06-05 03:02:00,
2013-06-04 21:11:00,32.0,32.0,-100.00,ENE,58,0.0,0.0,100,0.00,,,-99.99,,2013-06-05 03:11:00,
2013-06-04 21:21:00,32.0,32.0,-100.00,ENE,61,0.0,0.0,100,0.00,,,-99.99,,2013-06-05 03:21:00,
2013-06-04 21:32:00,32.0,32.0,-100.00,East,83,0.0,1.0,100,0.00,,,-99.99,,2013-06-05 03:32:00,
2013-06-04 21:42:00,32.0,32.0,-100.00,ENE,75,0.0,0.0,100,0.00,,,-99.99,,2013-06-05 03:42:00,
2013-06-04 22:02:00,32.0,32.0,-100.00,East,83,2.0,7.0,100,0.00,,,-99.99,,2013-06-05 04:02:00,
2013-06-04 22:12:00,32.0,32.0,-100.00,East,79,7.0,9.0,100,0.00,,,-99.99,,2013-06-05 04:12:00,
2013-06-04 22:22:00,32.0,32.0,-100.00,East,83,6.0,9.0,100,0.00,,,-99.99,,2013-06-05 04:22:00,
2013-06-04 22:32:00,32.0,32.0,-100.00,East,88,6.0,9.0,100,0.00,,,-99.99,,2013-06-05 04:32:00,
2013-06-04 22:42:00,32.0,32.0,-100.00,East,80,7.0,10.0,100,0.00,,,-99.99,,2013-06-05 04:42:00,
2013-06-04 22:53:00,32.0,32.0,-100.00,East,88,7.0,9.0,100,0.00,,,-99.99,,2013-06-05 04:53:00,
2013-06-04 23:02:00,32.0,32.0,-100.00,East,85,6.0,8.0,100,0.00,,,-99.99,,2013-06-05 05:02:00,
2013-06-04 23:12:00,32.0,32.0,-100.00,East,79,6.0,8.0,100,0.00,,,-99.99,,2013-06-05 05:12:00,
2013-06-04 23:22:00,32.0,32.0,-100.00,East,85,4.0,7.0,100,0.00,,,-99.99,,2013-06-05 05:22:00,
2013-06-04 23:32:00,32.0,32.0,-100.00,East,90,4.0,6.0,100,0.00,,,-99.99,,2013-06-05 05:32:00,
2013-06-04 23:42:00,32.0,32.0,-100.00,East,85,4.0,6.0,100,0.00,,,-99.99,,2013-06-05 05:42:00,
2013-06-04 23:52:00,32.0,32.0,-100.00,East,95,4.0,6.0,100,0.00,,,-99.99,,2013-06-05 05:52:00,